Tracking 33404 objects as of 6-Mar-2026
HD Live streaming from Space Station
objects crossing your sky now

YAOGAN-36 05C

Track YAOGAN-36 05C now!
10-day predictions


NORAD ID: 57456
Int'l Code: 2023-106E
Perigee: 515.5 km
Apogee: 527.3 km
Inclination: 35.0 °
Period: 94.9 minutes
Semi major axis: 6892 km
RCS: Unknown
Launch date: July 26, 2023
Source: People's Republic of China (PRC)
Launch site: Xichang Space Center, China (XSC)
Your satellite tracking list
Your tracking list is empty




NASA's NSSDC Master Catalog

Two Line Element Set (TLE):
1 57456U 23106E   26065.27539336  .00008644  00000-0  42560-3 0  9998
2 57456  34.9950   2.3303 0008572 154.0540 206.0603 15.17224403145221
Source of the keplerian elements: AFSPC